Location: Wheeling
(40.0640°N, 80.7210°W)
Time: 18:48:00
(UTC-05:00)

KAITUO 1B - Pass Details

Date: 29 October 2021
Orbit: 490 x 506 km, 97.4° (Epoch: 30 November)

Event Time Altitude Azimuth Distance (km) Brightness Sun altitude
Rises 06:45:40 0° 36° (NE) 2,595 ? -12.7°
Reaches altitude 10° 06:48:59 10° 68° (ENE) 1,709 ? -12.0°
Maximum altitude 06:50:25 12° 92° (E) 1,589 ? -11.8°
Drops below altitude 10° 06:51:52 10° 115° (ESE) 1,707 ? -11.5°
Sets 06:55:09 0° 148° (SSE) 2,588 ? -10.9°
